CAPE
0 0 0 0 0 0 0 0 23 83 53 46 247 392 693 693 356 47 7 19 14 66 9 8 4 32 57 103 128 125 55 507 133 0 6 0 0 0 0 12 14 56 38 65
0 0 0 0 0 0 0 0 21 4 13 26 87 14 469 583 537 187 64 68 49 126 142 86 67 170 219 157 166 155 139 337 267 17 184 24 31 20 29 1 83 12 13 55
0 0 0 0 0 0 0 2 6 3 10 38 14 73 17 223 50 233 119 47 185 261 311 287 265 189 45 50 210 124 308 373 488 409 172 87 70 40 30 28 26 34 76 6
0 0 0 0 0 0 0 0 0 0 0 1 106 43 0 116 4 185 211 317 238 206 426 122 79 26 90 113 155 105 115 144 114 160 89 169 67 108 104 77 55 34 0 1
0 0 0 0 0 0 0 0 0 0 0 0 31 97 299 0 0 178 611 594 278 344 153 96 44 33 3 1 143 50 125 296 251 91 66 84 92 95 73 15 24 0 0 0
0 0 0 0 0 0 0 0 0 0 0 2 63 69 586 97 154 212 701 672 585 291 162 62 20 2 0 0 0 1 244 47 51 51 102 60 76 6 37 18 1 0 0 0
0 0 0 0 0 0 0 0 4 25 63 54 203 532 246 352 403 615 691 534 160 69 53 31 36 20 0 3 12 54 27 39 116 84 70 41 0 21 33 23 0 0 0 0
0 0 0 0 0 0 0 0 0 0 0 4 239 435 290 328 526 555 253 133 30 0 10 3 0 0 0 62 69 85 69 128 135 56 156 48 17 19 30 36 18 0 0 0
43 2 0 0 0 0 0 15 0 0 11 17 248 242 269 126 183 364 216 13 0 0 4 11 17 8 20 28 68 61 96 147 69 84 53 64 52 0 18 63 0 5 0 0
27 8 0 0 0 0 0 0 0 4 23 0 347 335 229 146 131 85 43 6 0 0 0 4 8 7 0 7 33 43 71 46 14 0 46 26 47 34 13 20 58 32 0 0
0 0 1 0 0 0 0 5 7 0 0 23 35 107 66 65 54 23 0 0 0 0 0 7 0 0 0 0 1 3 4 0 0 39 43 39 10 0 15 61 9 16 0 0
0 9 0 0 0 0 0 0 0 0 14 3 0 99 11 2 9 0 0 0 0 0 0 1 0 0 0 0 27 15 0 0 0 27 60 51 39 0 0 0 0 0 0 0
0 0 0 0 0 0 0 0 0 0 2 32 61 236 9 0 0 0 0 0 0 0 0 0 0 1 8 8 36 0 0 0 41 63 60 42 36 42 39 0 0 0 0 0
51 0 0 4 35 2 0 0 0 0 0 9 144 83 4 0 0 0 0 0 0 0 0 2 8 14 36 54 9 0 0 0 61 8 26 16 18 55 2 0 0 0 0 0
0 0 0 0 0 0 0 0 0 0 0 0 0 1 0 0 0 0 0 0 0 0 0 0 1 8 35 21 0 0 0 22 30 18 8 0 0 4 0 0 0 0 0 0
0 0 0 0 0 0 0 0 0 0 0 0 14 0 0 0 0 0 0 0 0 0 2 10 11 15 35 4 0 0 25 53 6 19 0 0 0 0 0 0 0 0 0 0
0 0 0 0 0 0 1 0 0 0 0 0 0 0 0 0 0 0 0 0 0 2 0 4 5 42 25 4 0 11 47 28 25 16 0 0 0 0 0 0 0 0 0 0
0 35 0 1 0 0 1 0 0 0 0 0 0 0 0 0 0 0 0 0 0 0 1 3 25 33 15 0 14 40 42 12 13 0 0 0 0 0 0 0 0 0 0 0
0 74 0 0 0 6 0 0 0 0 0 0 0 0 0 0 0 0 0 0 0 0 11 7 16 10 0 17 28 45 20 0 0 0 0 0 0 0 0 0 0 0 0 0
0 0 15 0 24 6 1 0 0 0 0 0 0 0 0 0 0 0 0 0 0 8 2 5 21 11 24 29 54 21 0 0 0 0 0 0 0 0 0 0 0 0 0 0
0 0 0 0 22 14 0 0 0 0 1 0 0 0 0 0 0 0 0 0 1 4 15 17 14 15 25 28 46 15 1 0 0 0 0 0 0 0 69 70 17 0 0 0
0 0 3 3 2 12 0 0 2 0 0 0 0 0 0 0 0 0 0 0 6 6 5 9 9 13 28 40 28 0 0 0 0 0 0 0 0 40 24 59 54 0 0 0
2 77 85 135 22 1 0 0 0 0 0 0 0 0 0 0 0 0 0 0 14 10 6 10 3 17 30 42 29 11 31 0 0 0 0 0 0 69 76 70 52 0 0 0
27 0 0 0 0 0 0 0 0 0 0 0 0 0 0 0 0 1 0 0 5 4 11 5 13 14 33 35 14 12 15 22 1 0 0 0 0 68 80 30 34 0 0 0
0 0 0 0 0 0 0 0 0 0 0 0 0 0 0 0 1 3 0 11 10 10 8 8 9 30 38 53 35 22 5 19 0 0 0 0 0 0 47 40 0 1 0 0
0 19 0 0 0 0 0 0 0 0 0 0 0 0 0 0 1 5 6 5 14 11 2 11 32 33 24 27 30 35 5 9 12 10 5 0 0 0 0 49 0 6 0 0
CIN
-0 -0 -0 -0 -0 -0 -0 -0 -1 -11 -23 -9 -55 -38 -1 -6 -30 -163 -195 -251 -184 -132 -155 -150 -144 -105 -113 -108 -120 -89 -96 -2 -39 -0 -5 -0 -0 -0 -0 -20 -47 -52 -54 -29
-0 -0 -0 -0 -0 -0 -0 -0 -0 -2 -24 -21 -273 -178 -151 -10 -26 -88 -187 -198 -138 -65 -49 -62 -68 -33 -27 -43 -41 -47 -35 -5 -3 -13 -12 -22 -16 -13 -16 -7 -29 -51 -56 -38
-0 -0 -0 -0 -0 -0 -0 -1 -3 -5 -2 -8 -89 -379 -15 -47 -381 -5 -22 -60 -13 -1 -12 -21 -5 -14 -10 -10 -18 -5 -2 -5 -4 -7 -37 -17 -11 -11 -12 -7 -3 -34 -12 -15
-0 -0 -0 -0 -0 -0 -0 -0 -0 -0 -0 -0 -37 -44 -0 -54 -30 -114 -20 -7 -66 -3 -1 -18 -27 -5 -4 -16 -18 -41 -27 -13 -19 -27 -12 -10 -19 -8 -5 -3 -13 -2 -0 -2
-0 -0 -0 -0 -0 -0 -0 -0 -0 -0 -0 -0 -23 -36 -90 -0 -0 -67 -21 -12 -16 -126 -6 -7 -3 -3 -11 -23 -34 -67 -34 -36 -13 -30 -40 -15 -1 -0 -0 -3 -0 -0 -0 -0
-0 -0 -0 -0 -0 -0 -0 -0 -0 -0 -0 -0 -73 -15 -4 -13 -69 -47 -10 -8 -16 -23 -0 -0 -0 -7 -0 -0 -0 -30 -33 -58 -62 -78 -15 -7 -0 -0 -0 -0 -0 -0 -0 -0
-0 -0 -0 -0 -0 -0 -0 -0 -0 -0 -0 -53 -38 -7 -21 -8 -28 -14 -1 -0 -9 -12 -1 -2 -0 -8 -0 -3 -6 -61 -112 -66 -17 -16 -28 -4 -0 -0 -0 -0 -0 -0 -0 -0
-0 -0 -0 -0 -0 -0 -0 -0 -0 -0 -0 -0 -2 -22 -37 -0 -8 -3 -3 -4 -40 -2 -4 -0 -0 -0 -0 -26 -49 -41 -43 -28 -15 -29 -0 -3 -2 -0 -0 -0 -0 -0 -0 -0
-5 -3 -0 -0 -0 -0 -0 -1 -0 -0 -9 -7 -21 -21 -22 -10 -0 -11 -2 -37 -0 -0 -1 -3 -11 -35 -50 -22 -7 -6 -6 -1 -21 -0 -0 -3 -4 -0 -1 -3 -0 -1 -0 -0
-7 -2 -0 -0 -0 -0 -0 -0 -0 -2 -1 -0 -9 -3 -1 -2 -16 -25 -22 -0 -0 -0 -0 -4 -43 -35 -0 -32 -38 -74 -20 -5 -4 -0 -0 -0 -1 -0 -0 -0 -0 -2 -0 -0
-0 -0 -1 -0 -0 -0 -1 -1 -27 -0 -0 -1 -1 -21 -66 -69 -108 -104 -0 -0 -0 -0 -0 -29 -4 -0 -0 -0 -13 -10 -16 -0 -0 -0 -0 -0 -0 -0 -2 -0 -1 -0 -0 -0
-0 -32 -0 -0 -0 -0 -0 -0 -0 -0 -6 -1 -0 -21 -84 -26 -20 -0 -0 -0 -0 -0 -0 -20 -0 -0 -3 -0 -0 -16 -0 -0 -0 -3 -0 -0 -0 -0 -0 -0 -0 -0 -0 -0
-0 -0 -0 -0 -0 -0 -0 -0 -0 -0 -6 -1 -1 -2 -24 -0 -0 -0 -0 -0 -0 -0 -0 -0 -0 -0 -0 -10 -0 -0 -0 -0 -0 -0 -0 -0 -3 -1 -0 -0 -0 -0 -0 -0
-94 -0 -0 -0 -1 -1 -0 -0 -0 -0 -0 -0 -0 -1 -1 -0 -0 -0 -0 -0 -0 -0 -2 -0 -7 -0 -13 -0 -3 -0 -0 -0 -0 -8 -7 -3 -7 -0 -0 -0 -0 -0 -0 -0
-0 -0 -0 -0 -0 -0 -0 -0 -0 -0 -0 -0 -0 -0 -0 -0 -0 -0 -0 -0 -0 -0 -0 -0 -8 -17 -0 -0 -0 -0 -0 -5 -11 -10 -1 -0 -0 -0 -0 -0 -0 -0 -0 -0
-0 -0 -0 -0 -0 -0 -0 -0 -0 -0 -0 -0 -4 -0 -0 -0 -0 -0 -0 -0 -0 -0 -0 -0 -0 -8 -0 -1 -0 -0 -0 -0 -33 -0 -0 -0 -0 -0 -0 -0 -0 -0 -0 -0
-0 -0 -0 -0 -0 -0 -0 -0 -0 -0 -0 -0 -0 -0 -0 -0 -0 -0 -0 -0 -0 -0 -0 -0 -3 -0 -0 -0 -0 -1 -0 -0 -2 -0 -0 -0 -0 -0 -0 -0 -0 -0 -0 -0
-0 -23 -0 -1 -0 -0 -0 -0 -0 -0 -0 -0 -0 -0 -0 -0 -0 -0 -0 -0 -0 -0 -0 -0 -0 -0 -0 -0 -0 -2 -0 -6 -0 -0 -0 -0 -0 -0 -0 -0 -0 -0 -0 -0
-0 -15 -0 -1 -0 -5 -0 -0 -0 -0 -0 -0 -0 -0 -0 -0 -0 -0 -0 -0 -0 -0 -1 -16 -0 -0 -0 -0 -3 -0 -0 -0 -0 -0 -0 -0 -0 -0 -0 -0 -0 -0 -0 -0
-0 -0 -2 -0 -1 -0 -1 -0 -0 -0 -0 -0 -0 -0 -0 -0 -0 -0 -0 -0 -0 -0 -5 -0 -0 -0 -1 -2 -0 -3 -0 -0 -0 -0 -0 -0 -0 -0 -0 -0 -0 -0 -0 -0
-0 -0 -0 -0 -2 -63 -0 -0 -0 -0 -0 -0 -0 -0 -0 -0 -0 -0 -0 -0 -0 -0 -2 -0 -0 -2 -10 -0 -0 -0 -0 -0 -0 -0 -0 -0 -0 -0 -1 -1 -0 -0 -0 -0
-0 -0 -0 -2 -0 -44 -0 -0 -11 -0 -0 -0 -0 -0 -0 -0 -0 -0 -0 -0 -0 -0 -0 -0 -0 -14 -1 -8 -1 -0 -0 -0 -0 -0 -0 -0 -0 -0 -0 -1 -1 -0 -0 -0
-0 -39 -22 -59 -78 -18 -0 -0 -0 -0 -0 -0 -0 -0 -0 -0 -0 -0 -0 -0 -0 -0 -0 -0 -3 -3 -4 -4 -1 -7 -0 -0 -0 -0 -0 -0 -0 -2 -0 -1 -0 -0 -0 -0
-30 -0 -0 -0 -0 -0 -0 -0 -0 -0 -0 -0 -0 -0 -0 -0 -0 -0 -0 -0 -0 -0 -0 -0 -2 -4 -1 -0 -0 -5 -2 -1 -0 -0 -0 -0 -0 -2 -1 -0 -1 -0 -0 -0
-0 -0 -0 -0 -0 -0 -0 -0 -0 -0 -0 -0 -0 -0 -0 -0 -0 -0 -0 -3 -0 -0 -5 -1 -0 -4 -2 -1 -0 -4 -1 -2 -0 -0 -0 -0 -0 -0 -0 -1 -0 -0 -0 -0
-0 -51 -0 -0 -0 -0 -0 -0 -0 -0 -0 -0 -0 -0 -0 -0 -0 -0 -0 -0 -0 -0 -0 -1 -2 -8 -8 -2 -0 -2 -17 -12 -2 -0 -0 -0 -0 -0 -0 -4 -0 -0 -0 -0
Wind_Speed
nan nan nan nan nan nan nan nan nan nan nan nan 30 28 39 28 35 nan nan nan nan nan nan nan nan nan nan 42 44 46 nan 43 41 nan nan nan nan nan nan nan nan nan nan nan
nan nan nan nan nan nan nan nan nan nan nan nan nan nan 25 8 41 28 nan nan nan 40 41 nan nan 47 48 48 46 46 44 41 42 nan 41 nan nan nan nan nan nan nan nan nan
nan nan nan nan nan nan nan nan nan nan nan nan nan nan nan 27 nan 10 24 nan 44 48 48 48 47 46 nan nan 46 48 45 41 44 45 45 nan nan nan nan nan nan nan nan nan
nan nan nan nan nan nan nan nan nan nan nan nan 25 nan nan 29 nan 25 45 54 24 38 22 51 nan nan nan 50 59 60 59 56 56 53 nan 55 nan 56 52 nan nan nan nan nan
nan nan nan nan nan nan nan nan nan nan nan nan nan nan 30 nan nan 45 41 51 49 43 51 nan nan nan nan nan 59 nan 62 66 61 nan nan nan nan nan nan nan nan nan nan nan
nan nan nan nan nan nan nan nan nan nan nan nan nan nan 33 nan 42 42 47 49 51 48 50 nan nan nan nan nan nan nan 68 nan nan nan 61 nan nan nan nan nan nan nan nan nan
nan nan nan nan nan nan nan nan nan nan nan nan 27 36 30 38 46 51 52 58 60 nan nan nan nan nan nan nan nan nan nan nan 61 nan nan nan nan nan nan nan nan nan nan nan
nan nan nan nan nan nan nan nan nan nan nan nan 17 28 37 51 46 56 58 61 nan nan nan nan nan nan nan nan nan nan nan 56 54 nan 49 nan nan nan nan nan nan nan nan nan
nan nan nan nan nan nan nan nan nan nan nan nan 34 39 42 28 44 57 62 nan nan nan nan nan nan nan nan nan nan nan nan 33 nan nan nan nan nan nan nan nan nan nan nan nan
nan nan nan nan nan nan nan nan nan nan nan nan 30 40 37 40 42 nan nan nan nan nan nan nan nan nan nan nan nan nan nan nan nan nan nan nan nan nan nan nan nan nan nan nan
nan nan nan nan nan nan nan nan nan nan nan nan nan 40 nan nan nan nan nan nan nan nan nan nan nan nan nan nan nan nan nan nan nan nan nan nan nan nan nan nan nan nan nan nan
nan nan nan nan nan nan nan nan nan nan nan nan nan nan nan nan nan nan nan nan nan nan nan nan nan nan nan nan nan nan nan nan nan nan nan nan nan nan nan nan nan nan nan nan
nan nan nan nan nan nan nan nan nan nan nan nan nan 33 nan nan nan nan nan nan nan nan nan nan nan nan nan nan nan nan nan nan nan nan nan nan nan nan nan nan nan nan nan nan
nan nan nan nan nan nan nan nan nan nan nan nan 34 nan nan nan nan nan nan nan nan nan nan nan nan nan nan nan nan nan nan nan nan nan nan nan nan nan nan nan nan nan nan nan
nan nan nan nan nan nan nan nan nan nan nan nan nan nan nan nan nan nan nan nan nan nan nan nan nan nan nan nan nan nan nan nan nan nan nan nan nan nan nan nan nan nan nan nan
nan nan nan nan nan nan nan nan nan nan nan nan nan nan nan nan nan nan nan nan nan nan nan nan nan nan nan nan nan nan nan nan nan nan nan nan nan nan nan nan nan nan nan nan
nan nan nan nan nan nan nan nan nan nan nan nan nan nan nan nan nan nan nan nan nan nan nan nan nan nan nan nan nan nan nan nan nan nan nan nan nan nan nan nan nan nan nan nan
nan nan nan nan nan nan nan nan nan nan nan nan nan nan nan nan nan nan nan nan nan nan nan nan nan nan nan nan nan nan nan nan nan nan nan nan nan nan nan nan nan nan nan nan
nan nan nan nan nan nan nan nan nan nan nan nan nan nan nan nan nan nan nan nan nan nan nan nan nan nan nan nan nan nan nan nan nan nan nan nan nan nan nan nan nan nan nan nan
nan nan nan nan nan nan nan nan nan nan nan nan nan nan nan nan nan nan nan nan nan nan nan nan nan nan nan nan nan nan nan nan nan nan nan nan nan nan nan nan nan nan nan nan
nan nan nan nan nan nan nan nan nan nan nan nan nan nan nan nan nan nan nan nan nan nan nan nan nan nan nan nan nan nan nan nan nan nan nan nan nan nan nan nan nan nan nan nan
nan nan nan nan nan nan nan nan nan nan nan nan nan nan nan nan nan nan nan nan nan nan nan nan nan nan nan nan nan nan nan nan nan nan nan nan nan nan nan nan nan nan nan nan
nan nan nan 18 nan nan nan nan nan nan nan nan nan nan nan nan nan nan nan nan nan nan nan nan nan nan nan nan nan nan nan nan nan nan nan nan nan nan nan nan nan nan nan nan
nan nan nan nan nan nan nan nan nan nan nan nan nan nan nan nan nan nan nan nan nan nan nan nan nan nan nan nan nan nan nan nan nan nan nan nan nan nan nan nan nan nan nan nan
nan nan nan nan nan nan nan nan nan nan nan nan nan nan nan nan nan nan nan nan nan nan nan nan nan nan nan nan nan nan nan nan nan nan nan nan nan nan nan nan nan nan nan nan
nan nan nan nan nan nan nan nan nan nan nan nan nan nan nan nan nan nan nan nan nan nan nan nan nan nan nan nan nan nan nan nan nan nan nan nan nan nan nan nan nan nan nan nan
Wind_Direction
nan nan nan nan nan nan nan nan nan nan nan nan 318 348 332 305 321 nan nan nan nan nan nan nan nan nan nan 310 308 304 nan 301 299 nan nan nan nan nan nan nan nan nan nan nan
nan nan nan nan nan nan nan nan nan nan nan nan nan nan 184 285 310 309 nan nan nan 320 315 nan nan 319 317 317 312 307 304 303 303 nan 304 nan nan nan nan nan nan nan nan nan
nan nan nan nan nan nan nan nan nan nan nan nan nan nan nan 271 nan 285 354 nan 334 332 327 333 325 321 nan nan 309 307 301 296 292 291 298 nan nan nan nan nan nan nan nan nan
nan nan nan nan nan nan nan nan nan nan nan nan 325 nan nan 324 nan 12 341 359 319 327 331 322 nan nan nan 308 311 309 312 312 305 308 nan 297 nan 293 294 nan nan nan nan nan
nan nan nan nan nan nan nan nan nan nan nan nan nan nan 329 nan nan 346 355 325 326 330 315 nan nan nan nan nan 317 nan 314 306 303 nan nan nan nan nan nan nan nan nan nan nan
nan nan nan nan nan nan nan nan nan nan nan nan nan nan 312 nan 341 338 346 321 324 326 310 nan nan nan nan nan nan nan 303 nan nan nan 303 nan nan nan nan nan nan nan nan nan
nan nan nan nan nan nan nan nan nan nan nan nan 349 282 279 313 317 332 316 319 316 nan nan nan nan nan nan nan nan nan nan nan 305 nan nan nan nan nan nan nan nan nan nan nan
nan nan nan nan nan nan nan nan nan nan nan nan 296 285 305 291 308 307 309 309 nan nan nan nan nan nan nan nan nan nan nan 303 301 nan 303 nan nan nan nan nan nan nan nan nan
nan nan nan nan nan nan nan nan nan nan nan nan 285 289 276 282 304 309 305 nan nan nan nan nan nan nan nan nan nan nan nan 327 nan nan nan nan nan nan nan nan nan nan nan nan
nan nan nan nan nan nan nan nan nan nan nan nan 289 290 296 287 288 nan nan nan nan nan nan nan nan nan nan nan nan nan nan nan nan nan nan nan nan nan nan nan nan nan nan nan
nan nan nan nan nan nan nan nan nan nan nan nan nan 276 nan nan nan nan nan nan nan nan nan nan nan nan nan nan nan nan nan nan nan nan nan nan nan nan nan nan nan nan nan nan
nan nan nan nan nan nan nan nan nan nan nan nan nan nan nan nan nan nan nan nan nan nan nan nan nan nan nan nan nan nan nan nan nan nan nan nan nan nan nan nan nan nan nan nan
nan nan nan nan nan nan nan nan nan nan nan nan nan 279 nan nan nan nan nan nan nan nan nan nan nan nan nan nan nan nan nan nan nan nan nan nan nan nan nan nan nan nan nan nan
nan nan nan nan nan nan nan nan nan nan nan nan 271 nan nan nan nan nan nan nan nan nan nan nan nan nan nan nan nan nan nan nan nan nan nan nan nan nan nan nan nan nan nan nan
nan nan nan nan nan nan nan nan nan nan nan nan nan nan nan nan nan nan nan nan nan nan nan nan nan nan nan nan nan nan nan nan nan nan nan nan nan nan nan nan nan nan nan nan
nan nan nan nan nan nan nan nan nan nan nan nan nan nan nan nan nan nan nan nan nan nan nan nan nan nan nan nan nan nan nan nan nan nan nan nan nan nan nan nan nan nan nan nan
nan nan nan nan nan nan nan nan nan nan nan nan nan nan nan nan nan nan nan nan nan nan nan nan nan nan nan nan nan nan nan nan nan nan nan nan nan nan nan nan nan nan nan nan
nan nan nan nan nan nan nan nan nan nan nan nan nan nan nan nan nan nan nan nan nan nan nan nan nan nan nan nan nan nan nan nan nan nan nan nan nan nan nan nan nan nan nan nan
nan nan nan nan nan nan nan nan nan nan nan nan nan nan nan nan nan nan nan nan nan nan nan nan nan nan nan nan nan nan nan nan nan nan nan nan nan nan nan nan nan nan nan nan
nan nan nan nan nan nan nan nan nan nan nan nan nan nan nan nan nan nan nan nan nan nan nan nan nan nan nan nan nan nan nan nan nan nan nan nan nan nan nan nan nan nan nan nan
nan nan nan nan nan nan nan nan nan nan nan nan nan nan nan nan nan nan nan nan nan nan nan nan nan nan nan nan nan nan nan nan nan nan nan nan nan nan nan nan nan nan nan nan
nan nan nan nan nan nan nan nan nan nan nan nan nan nan nan nan nan nan nan nan nan nan nan nan nan nan nan nan nan nan nan nan nan nan nan nan nan nan nan nan nan nan nan nan
nan nan nan 229 nan nan nan nan nan nan nan nan nan nan nan nan nan nan nan nan nan nan nan nan nan nan nan nan nan nan nan nan nan nan nan nan nan nan nan nan nan nan nan nan
nan nan nan nan nan nan nan nan nan nan nan nan nan nan nan nan nan nan nan nan nan nan nan nan nan nan nan nan nan nan nan nan nan nan nan nan nan nan nan nan nan nan nan nan
nan nan nan nan nan nan nan nan nan nan nan nan nan nan nan nan nan nan nan nan nan nan nan nan nan nan nan nan nan nan nan nan nan nan nan nan nan nan nan nan nan nan nan nan
nan nan nan nan nan nan nan nan nan nan nan nan nan nan nan nan nan nan nan nan nan nan nan nan nan nan nan nan nan nan nan nan nan nan nan nan nan nan nan nan nan nan nan nan